Weather History for Bradford, PA

Change the Weather History Date:

Monday, July 23, 2012

  Actual Average Record
Temperature  
Mean Temperature 76 °F 65 °F  
Max Temperature 84 °F 77 °F 88 °F (1987)
Min Temperature 68 °F 54 °F 38 °F (1981)
Degree Days  
Heating Degree Days 0 0  
Month to date heating degree days 1  
Since 1 June heating degree days 146  
Since 1 July heating degree days 1  
Cooling Degree Days 11 2  
Month to date cooling degree days 54  
Year to date cooling degree days 104  
Since 1 June cooling degree days 94  
Growing Degree Days 26 (Base 50)    
Moisture  
Dew Point 63 °F    
Average Humidity 63    
Maximum Humidity 78    
Minimum Humidity 49    
Precipitation  
Precipitation 0.00 in 0.13 in 1.53 in (1991)
Month to date precipitation 3.11  
Year to date precipitation 24.76  
Sea Level Pressure  
Sea Level Pressure 29.99 in    
Wind  
Wind Speed 5 mph (WSW)    
Max Wind Speed 12 mph    
Max Gust Speed 25 mph    
Visibility 10 miles    
Events      
T = Trace of Precipitation, MM = Missing Value Source: NWS Daily Summary

Daily Weather History Graph

Daily Weather History Graph

Search for Another Location

Airport:

Trip Planner

Search our weather history database for the weather conditions in past years. The results will help you decide how hot, cold, wet, or windy it might be!

Date:

Astronomy

Jul. 23, 2012 Rise Set
Actual Time 6:00 AM EDT 8:41 PM EDT
Civil Twilight 5:27 AM EDT 9:13 PM EDT
Nautical Twilight 4:47 AM EDT 9:53 PM EDT
Astronomical Twilight 4:01 AM EDT 10:39 PM EDT
Moon 10:54 AM EDT (7/23) 10:49 PM EDT (7/23)
Length of Visible Light 15h 45m
Length of Day
14h 41m
Waxing Crescent, 21% of the Moon is Illuminated
Jul 23
Waxing Crescent
Jul 26
First Quarter
Aug 1
Full
Aug 9
Last Quarter
Aug 17
New

Hourly Weather History & Observations

Time (EDT) Temp. Heat Index Dew Point Humidity Pressure Visibility Wind Dir Wind Speed Gust Speed Precip Events Conditions
12:53 AM 70.0 °F - 62.1 °F 76% 30.09 in 10.0 mi Variable 3.5 mph - N/A   Clear
1:53 AM 70.0 °F - 62.1 °F 76% 30.09 in 10.0 mi South 3.5 mph - N/A   Mostly Cloudy
2:53 AM 70.0 °F - 61.0 °F 73% 30.09 in 10.0 mi Calm Calm - N/A   Clear
3:53 AM 68.0 °F - 61.0 °F 78% 30.08 in 10.0 mi Calm Calm - N/A   Scattered Clouds
4:53 AM 69.1 °F - 61.0 °F 75% 30.06 in 10.0 mi SW 3.5 mph - N/A   Mostly Cloudy
5:53 AM 68.0 °F - 61.0 °F 78% 30.07 in 10.0 mi SSW 4.6 mph - N/A   Scattered Clouds
6:53 AM 69.8 °F - 60.8 °F 73% 30.13 in 10.0 mi SSW 5.8 mph - N/A   Overcast
7:53 AM 71.1 °F - 62.1 °F 73% 30.07 in 10.0 mi Variable 5.8 mph - N/A   Clear
8:53 AM 73.9 °F - 63.0 °F 68% 30.06 in 10.0 mi WSW 4.6 mph - N/A   Clear
9:53 AM 77.0 °F - 64.0 °F 64% 30.04 in 10.0 mi SW 6.9 mph - N/A   Clear
10:53 AM 79.0 °F - 63.0 °F 58% 30.03 in 10.0 mi West 9.2 mph - N/A   Clear
11:53 AM 82.0 °F 83.4 °F 64.0 °F 54% 30.02 in 10.0 mi WSW 8.1 mph - N/A   Partly Cloudy
12:53 PM 84.0 °F 84.9 °F 63.0 °F 49% 30.00 in 10.0 mi West 9.2 mph 21.9 mph N/A   Partly Cloudy
1:53 PM 82.9 °F 84.4 °F 64.0 °F 53% 29.98 in 10.0 mi West 11.5 mph 18.4 mph N/A   Partly Cloudy
2:53 PM 84.9 °F 86.1 °F 64.0 °F 49% 29.95 in 10.0 mi WSW 8.1 mph 18.4 mph N/A   Partly Cloudy
3:53 PM 84.0 °F 84.9 °F 63.0 °F 49% 29.93 in 10.0 mi SW 11.5 mph 20.7 mph N/A   Partly Cloudy
4:53 PM 82.9 °F 84.0 °F 63.0 °F 51% 29.90 in 10.0 mi West 10.4 mph 25.3 mph N/A   Partly Cloudy
5:53 PM 82.9 °F 84.0 °F 63.0 °F 51% 29.88 in 10.0 mi WSW 9.2 mph 19.6 mph N/A   Partly Cloudy
6:53 PM 82.0 °F 83.4 °F 64.0 °F 54% 29.86 in 10.0 mi SW 8.1 mph - N/A   Clear
7:53 PM 81.0 °F 82.2 °F 63.0 °F 54% 29.85 in 10.0 mi SW 8.1 mph - N/A   Clear
8:53 PM 79.0 °F - 63.0 °F 58% 29.87 in 10.0 mi WSW 5.8 mph - N/A   Clear
9:53 PM 75.9 °F - 63.0 °F 64% 29.89 in 10.0 mi Variable 3.5 mph - N/A   Clear
10:53 PM 75.0 °F - 63.0 °F 66% 29.87 in 10.0 mi Variable 4.6 mph - N/A   Mostly Cloudy
11:53 PM 73.9 °F - 64.0 °F 71% 29.84 in 10.0 mi SW 6.9 mph - N/A   Scattered Clouds